Terminal Aerodrome Forecast
Issued by NWS

Home | Current Version | Previous Version | Text Only | Print | Product List | Glossary On
Versions: 1 2 3 4 5 6 7 8 9 10 11 12 13 14 15 16 17
000
FTUS45 KGGW 151120
TAFSDY
TAF
KSDY 151120Z 1512/1612 VRB03KT P6SM OVC017
     FM151400 00000KT P6SM BKN025
     FM151600 00000KT P6SM BKN050
     FM152300 10005KT P6SM SCT200
     FM160500 12006KT P6SM BKN200 WS020/15035KT=

USA.gov is the U.S. government's official web portal to all federal, state and local government web resources and services.